Hourly Data Report for July 12, 2003

SHERBROOKE A
QUEBEC

45°26'00.000" N
71°41'00.000" W
241.40 m
7028124
71610
YSC

Download Data

Hourly Data (July 2003)
Hourly Data Report for July 12, 2003
TIME
LST
Temp Definition
°C
Dew Point Definition
°C
Rel Hum Definition
%
Precip. Amount Definition
mm

Wind Dir Definition
10's deg

Wind Spd Definition
km/h
Visibility Definition
km
Stn Press Definition
kPa
Hmdx Definition


Wind Chill Definition


Weather Definition


00:00 14.3 12.7 90     0 15.0 97.94     Rain
01:00 15.0 13.6 91   13 4 15.0 97.92     Rain
02:00 14.2 13.4 95     0 15.0 97.89      
03:00 13.0 12.3 96     0 9.7 97.91      
04:00 13.6 12.8 95     0 15.0 97.91      
05:00 13.8 13.1 96     0 15.0 97.89      
06:00 15.4 13.8 90   19 6 15.0 97.96      
07:00 16.8 14.3 85   19 6 24.1 97.94     Mostly Cloudy
08:00 19.1 14.6 75   17 13 24.1 97.91     Mainly Clear
09:00 21.3 14.1 64   19 19 24.1 97.86 25   Mainly Clear
10:00 22.2 12.4 54   20 22 24.1 97.88 25   Mainly Clear
11:00 23.5 13.0 52   21 19 24.1 97.85 26   Mainly Clear
12:00 24.0 12.2 48   22 22 24.1 97.83 26   Mainly Clear
13:00 23.3 13.6 54   21 19 24.1 97.83 26   Mostly Cloudy
14:00 24.7 12.8 47   21 17 24.1 97.85 27   Mainly Clear
15:00 22.5 12.3 52   19 24 24.1 97.86 25   Mostly Cloudy
16:00 21.8 12.2 54   22 19 24.1 97.90     Mostly Cloudy
17:00 21.2 12.4 57   24 19 15.0 97.91      
18:00 16.4 14.7 90   24 17 3.1 98.04     Moderate Rain
19:00 16.2 14.5 90   22 7 15.0 98.06      
20:00 16.4 13.9 85   23 17 15.0 98.11      
21:00 15.7 14.2 91   22 4 15.0 98.16      
22:00 16.0 14.1 88   19 9 15.0 98.21      
23:00 16.0 13.8 87   20 13 15.0 98.25      

Notes on Data Quality.

Legend

  • E = Estimated
  • M = Missing
  • NA = Not Available*
  • [empty] = Indicates an unobserved value
Date modified: